Weather History for KFMY - April, 2014

Change the Weather History Date:

Friday, April 18, 2014

  Actual Average Record
Temperature  
Mean Temperature 79 °F 74 °F  
Max Temperature 85 °F 85 °F 95 °F (1944)
Min Temperature 72 °F 63 °F 49 °F (1956)
Degree Days  
Heating Degree Days 0 0  
Month to date heating degree days 0 0  
Since 1 July heating degree days 178 284  
Cooling Degree Days 14 9  
Month to date cooling degree days 173 146  
Year to date cooling degree days 595 507  
Growing Degree Days 28 (Base 50)    
Moisture  
Dew Point 70 °F    
Average Humidity 84    
Maximum Humidity 94    
Minimum Humidity 55    
Precipitation  
Precipitation 0.00 in 0.07 in 1.75 in (1916)
Month to date precipitation 0.93 1.35  
Year to date precipitation 7.56 8.32  
Sea Level Pressure  
Sea Level Pressure 30.01 in    
Wind  
Wind Speed 9 mph (SE)    
Max Wind Speed 18 mph    
Max Gust Speed 26 mph    
Visibility 10 miles    
Events Rain    
T = Trace of Precipitation, MM = Missing Value Source: NWS Daily Summary

Daily Weather History Graph

Daily Weather History Graph

Search for Another Location

Airport or City:

Trip Planner

Search our weather history database for the weather conditions in past years. The results will help you decide how hot, cold, wet, or windy it might be!

Date:

Astronomy

Apr. 18, 2014 Rise Set
Actual Time 7:00 AM EDT 7:52 PM EDT
Civil Twilight 6:37 AM EDT 8:16 PM EDT
Nautical Twilight 6:09 AM EDT 8:44 PM EDT
Astronomical Twilight 5:40 AM EDT 9:13 PM EDT
Moon 11:24 PM EDT (4/18) 9:33 AM EDT (4/18)
Length of Visible Light 13h 39m
Length of Day
12h 52m
Waning Gibbous, 87% of the Moon is Illuminated
Apr 18
Waning Gibbous
Apr 22
Last Quarter
Apr 29
New
May 6
First Quarter
May 14
Full

Hourly Weather History & Observations

Time (EDT) Temp. Heat Index Dew Point Humidity Pressure Visibility Wind Dir Wind Speed Gust Speed Precip Events Conditions
12:10 AM 73.9 °F - 70.0 °F 87% 30.10 in 10.0 mi East 10.4 mph - N/A   Overcast
12:33 AM 73.9 °F - 70.0 °F 87% 30.10 in 10.0 mi East 10.4 mph 19.6 mph N/A   Overcast
12:53 AM 73.9 °F - 70.0 °F 87% 30.09 in 10.0 mi East 12.7 mph - 0.00 in Rain Light Rain
1:53 AM 73.0 °F - 70.0 °F 90% 30.07 in 10.0 mi East 10.4 mph - 0.00 in   Partly Cloudy
2:53 AM 72.0 °F - 70.0 °F 93% 30.05 in 10.0 mi East 10.4 mph - N/A   Scattered Clouds
3:51 AM 71.6 °F - 69.8 °F 94% 30.01 in 10.0 mi East 10.4 mph - N/A   Partly Cloudy
3:53 AM 72.0 °F - 70.0 °F 93% 30.02 in 10.0 mi East 9.2 mph - N/A   Partly Cloudy
4:53 AM 72.0 °F - 70.0 °F 93% 30.00 in 10.0 mi East 9.2 mph - N/A   Scattered Clouds
5:04 AM 72.0 °F - 70.0 °F 93% 30.00 in 10.0 mi East 10.4 mph - N/A   Mostly Cloudy
5:53 AM 72.0 °F - 70.0 °F 93% 30.01 in 10.0 mi East 8.1 mph - N/A   Overcast
6:07 AM 72.0 °F - 70.0 °F 93% 30.01 in 10.0 mi East 9.2 mph - N/A   Overcast
6:16 AM 73.0 °F - 70.0 °F 90% 30.01 in 10.0 mi East 8.1 mph - N/A   Overcast
6:53 AM 72.0 °F - 70.0 °F 93% 30.04 in 10.0 mi East 11.5 mph - N/A   Mostly Cloudy
7:13 AM 72.0 °F - 70.0 °F 93% 30.04 in 10.0 mi East 10.4 mph - N/A   Mostly Cloudy
7:37 AM 72.0 °F - 70.0 °F 93% 30.05 in 10.0 mi ESE 8.1 mph - N/A   Scattered Clouds
7:53 AM 73.0 °F - 70.0 °F 90% 30.05 in 10.0 mi ESE 10.4 mph - N/A   Clear
8:08 AM 73.0 °F - 70.0 °F 90% 30.04 in 10.0 mi ESE 10.4 mph - N/A   Partly Cloudy
8:23 AM 73.0 °F - 71.1 °F 93% 30.04 in 10.0 mi ESE 10.4 mph - N/A   Mostly Cloudy
8:33 AM 73.9 °F - 71.1 °F 91% 30.03 in 10.0 mi ESE 10.4 mph - N/A   Scattered Clouds
8:53 AM 75.0 °F - 71.1 °F 87% 30.03 in 10.0 mi SE 8.1 mph - N/A   Partly Cloudy
9:53 AM 77.0 °F - 71.1 °F 82% 30.03 in 10.0 mi SE 11.5 mph 17.3 mph N/A   Partly Cloudy
10:53 AM 79.0 °F - 70.0 °F 74% 30.03 in 10.0 mi SSE 11.5 mph - N/A   Partly Cloudy
11:53 AM 80.1 °F 82.9 °F 69.1 °F 69% 30.03 in 10.0 mi South 10.4 mph - N/A   Clear
12:53 PM 84.0 °F 87.0 °F 68.0 °F 58% 30.01 in 10.0 mi South 12.7 mph 21.9 mph N/A   Mostly Cloudy
1:53 PM 84.9 °F 87.6 °F 66.9 °F 55% 30.00 in 10.0 mi South 13.8 mph 26.5 mph N/A   Partly Cloudy
2:53 PM 82.9 °F 86.5 °F 69.1 °F 63% 29.99 in 10.0 mi South 12.7 mph 20.7 mph N/A   Scattered Clouds
3:53 PM 82.9 °F 85.4 °F 66.9 °F 58% 29.97 in 10.0 mi South 12.7 mph 20.7 mph N/A   Partly Cloudy
4:53 PM 81.0 °F 84.1 °F 69.1 °F 67% 29.97 in 10.0 mi South 11.5 mph 21.9 mph N/A   Overcast
5:53 PM 80.1 °F 83.2 °F 70.0 °F 71% 29.94 in 10.0 mi SSW 12.7 mph - N/A   Scattered Clouds
6:53 PM 79.0 °F - 71.1 °F 77% 29.94 in 10.0 mi SSW 9.2 mph 18.4 mph N/A   Overcast
7:29 PM 79.0 °F - 72.0 °F 79% 29.94 in 10.0 mi SSW 6.9 mph - N/A   Mostly Cloudy
7:53 PM 77.0 °F - 71.1 °F 82% 29.95 in 10.0 mi West 8.1 mph - N/A   Overcast
8:18 PM 77.0 °F - 71.1 °F 82% 29.94 in 10.0 mi South 3.5 mph - N/A   Partly Cloudy
8:53 PM 77.0 °F - 72.0 °F 84% 29.94 in 10.0 mi SSW 4.6 mph - N/A   Clear
9:53 PM 75.9 °F - 73.0 °F 91% 29.97 in 10.0 mi South 3.5 mph - N/A   Clear
11:53 PM 75.9 °F - 73.0 °F 91% 29.96 in 10.0 mi South 3.5 mph - N/A   Clear